Regional Weather Roundup
Issued by NWS

Home | Current Version | Previous Version | Text Only | Print | Product List | Glossary On
Versions: 1 2 3 4 5 6 7 8 9 10 11 12 13 14 15 16 17 18 19 20 21 22 23 24 25 26 27 28 29 30 31 32 33 34 35 36 37 38 39 40 41 42 43 44 45 46 47 48 49 50
000
ASUS43 KDTX 280010
RWRMI
MICHIGAN HOURLY REGIONAL WEATHER ROUNDUP
NATIONAL WEATHER SERVICE DETROIT/PONTIAC MI
800 PM EDT MON JUL 27 2015

NOTE: "FAIR" INDICATES FEW OR NO CLOUDS BELOW 12,000 FEET WITH NO
SIGNIFICANT WEATHER AND/OR OBSTRUCTION TO VISIBILITY.

MIZ047>049-052>055-059>063-066>070-074>076-081>083-280100-
SOUTHEAST LOWER MICHIGAN

CITY           SKY/WX    TMP DP  RH WIND       PRES   REMARKS
ADRIAN         CLEAR     81  63  54 SE3       30.00F
6HR MIN TEMP:  81; 6HR MAX TEMP:  86;

ALMA           MOSUNNY   82  72  72 CALM      30.01S
ANN ARBOR      PTCLDY    83  64  52 S5        29.99F
BAD AXE        CLEAR     85  64  50 CALM      30.00S
DETROIT CITY   CLEAR     84  62  47 E6        30.00S
6HR MIN TEMP:  84; 6HR MAX TEMP:  87;

DETROIT        PTCLDY    85  63  47 E6        30.00S
6HR MIN TEMP:  85; 6HR MAX TEMP:  89;

FLINT          CLEAR     87  62  43 W5        30.01S
6HR MIN TEMP:  87; 6HR MAX TEMP:  92;

GROSSE ILE     CLEAR     81  70  69 S5        29.99S
HILLSDALE      CLEAR     81  63  54 CALM      30.03R
6HR MIN TEMP:  81; 6HR MAX TEMP:  85;

HOWELL         PTCLDY    83  59  44 CALM      30.01S
6HR MIN TEMP:  82; 6HR MAX TEMP:  88;


CITY           SKY/WX    TMP DP  RH WIND       PRES   REMARKS
JACKSON        CLEAR     83  62  49 NE5       30.01S
6HR MIN TEMP:  82; 6HR MAX TEMP:  88;

LAMBERTVILLE   PTCLDY    82  61  49 CALM      30.00S
6HR MIN TEMP:  82; 6HR MAX TEMP:  85;

LANSING        MOSUNNY   82  64  54 NE3       30.01S
6HR MIN TEMP:  82; 6HR MAX TEMP:  89;

LAPEER         NOT AVBL
MASON          PTCLDY    82  62  51 CALM      30.01S
MONROE         PTCLDY    81  62  50 CALM      29.99S
MT. CLEMENS    PTCLDY    82  65  55 S5        29.99S
6HR MIN TEMP:  82; 6HR MAX TEMP:  88;

PONTIAC        PTCLDY    86  58  38 NE7       30.00S
6HR MIN TEMP:  85; 6HR MAX TEMP:  90;

PORT HOPE        N/A     76  69  79 E8        29.99S
6HR MIN TEMP:  76; 6HR MAX TEMP:  81;

PORT HURON     CLEAR     79  66  65 CALM      30.00S
TRI CITIES     SUNNY     87  63  44 SW5       30.01S
6HR MIN TEMP:  86; 6HR MAX TEMP:  90;

YPSILANTI      PTCLDY    86  66  51 S9        30.00S
6HR MIN TEMP:  86; 6HR MAX TEMP:  93;

$$
MIZ043>046-050>051-056>058-064>065-071>073-077>080-280100-
SOUTHWEST LOWER MICHIGAN

CITY           SKY/WX    TMP DP  RH WIND       PRES   REMARKS
BATTLE CREEK   SUNNY     85  61  44 SE6       30.02S
6HR MIN TEMP:  85; 6HR MAX TEMP:  88;

BENTON HARBOR  SUNNY     80  65  59 N6        29.99R
6HR MIN TEMP:  80; 6HR MAX TEMP:  89;

BIG RAPIDS     MOSUNNY   83  62  48 SW3       30.01S
6HR MIN TEMP:  83; 6HR MAX TEMP:  90;

COLDWATER      SUNNY     79  60  51 E6        30.01S
6HR MIN TEMP:  79; 6HR MAX TEMP:  83;

HOLLAND        SUNNY     84  63  49 SE3       30.00S
6HR MIN TEMP:  84; 6HR MAX TEMP:  90;

GRAND RAPIDS   PTSUNNY   84  62  47 SE5       30.00S
6HR MIN TEMP:  84; 6HR MAX TEMP:  88;

KALAMAZOO      SUNNY     85  64  49 CALM      30.01S
6HR MIN TEMP:  85; 6HR MAX TEMP:  88; 6HR PCP: TRACE;

MARSHALL       SUNNY     83  64  53 CALM      30.00S
MUSKEGON       PTSUNNY   84  65  52 NW7       30.00S
6HR MIN TEMP:  84; 6HR MAX TEMP:  91;

$$
MIZ016>042-280100-
NORTHERN LOWER MICHIGAN

CITY           SKY/WX    TMP DP  RH WIND       PRES   REMARKS
ALPENA         SUNNY     83  60  45 SE5       30.00F
6HR MIN TEMP:  83; 6HR MAX TEMP:  91; 6HR PCP: TRACE;

BEAVER ISLAND  SUNNY     77  61  58 SW6       30.02R
6HR MIN TEMP:  77; 6HR MAX TEMP:  85;

BELLAIRE       SUNNY     82  60  47 CALM      30.01R
6HR MIN TEMP:  82; 6HR MAX TEMP:  90;

CADILLAC       SUNNY     84  62  46 N7        30.03R
CHARLEVOIX     SUNNY     78  61  55 W7        30.04S
6HR MIN TEMP:  78; 6HR MAX TEMP:  84;

FRANKFORT      CLEAR     83  59  45 NW3       30.01S
GAYLORD        SUNNY     85  58  39 NW6       30.04R
6HR MIN TEMP:  85; 6HR MAX TEMP:  90;

GRAYLING       SUNNY     86  59  39 NW7       30.03R
6HR MIN TEMP:  86; 6HR MAX TEMP:  92;

HARBOR SPRINGS SUNNY     72  68  88 SW6       30.01S
HOUGHTON LAKE  MOSUNNY   87  60  40 W5        30.01S
6HR MIN TEMP:  87; 6HR MAX TEMP:  91;

MANISTEE       SUNNY     79  57  47 W3        30.02S
OSCODA         CLEAR     78  65  64 E6        29.99S
PELLSTON       SUNNY     85  60  42 W6        30.01S
6HR MIN TEMP:  85; 6HR MAX TEMP:  94;

TRAVERSE CITY  MOSUNNY   83  64  52 N6        29.99S
6HR MIN TEMP:  83; 6HR MAX TEMP:  91;

$$
MIZ007>008-015-280100-
EASTERN UPPER MICHIGAN

CITY           SKY/WX    TMP DP  RH WIND       PRES   REMARKS
KINROSS        SUNNY     84  64  51 W6        30.00R
6HR MIN TEMP:  84; 6HR MAX TEMP:  91;

MACKINAC ISLAN SUNNY     79  63  56 W8        30.00S
6HR MIN TEMP:  79; 6HR MAX TEMP:  84;

$$
MIZ004>006-011>014-085-280100-
CENTRAL UPPER MICHIGAN

CITY           SKY/WX    TMP DP  RH WIND       PRES   REMARKS
MANISTIQUE     SUNNY     75  63  64 SW5       30.00R
ESCANABA       SUNNY     81  64  57 S8        29.98S
6HR MIN TEMP:  81; 6HR MAX TEMP:  88;

MENOMINEE      SUNNY     82  61  47 SW8       29.99S
6HR MIN TEMP:  82; 6HR MAX TEMP:  86;

SAWYER-GWINN   SUNNY     88  57  35 SW10      30.00S
$$
MIZ001>003-009>011-084-280100-
WESTERN UPPER MICHIGAN

CITY           SKY/WX    TMP DP  RH WIND       PRES   REMARKS
IRON MOUNTAIN  SUNNY     85  63  47 S8        30.00R
6HR MIN TEMP:  85; 6HR MAX TEMP:  91;

HOUGHTON       SUNNY     81  67  62 E7        29.98R
6HR MIN TEMP:  81; 6HR MAX TEMP:  91;

COPPER HARBOR    N/A     72  64  76 CALM      29.96F
6HR MIN TEMP:  66; 6HR MAX TEMP:  76;

IRONWOOD       SUNNY     84  55  37 S5          N/A
6HR MIN TEMP:  84; 6HR MAX TEMP:  88;

$$

ABBREVIATIONS USED IN REMARKS
   TC - TEMPERATURE IN CELSIUS
  WCI - WIND CHILL INDEX
   HX - HEAT INDEX
  VSB - VISIBILITY



USA.gov is the U.S. government's official web portal to all federal, state and local government web resources and services.